sat.trackr.live / text

‹ back to catalog

STARLINK-30336

NORAD 57703 · 2023-129F

PAYLOAD ACTIVE UNKNOWN

§ Identity

Operator
Country
US
Launch date
2023-08-27
Launch site
AFETR
Launch vehicle
Mass (kg)
RCS (m²)

Purposes: comms

External: N2YO · Heavens-Above · Gunter

§ Orbital elements

Epoch: 2026-09-20T22:33:42.003936Z

Period
94.27 min
Inclination
43.0020°
Eccentricity
0.0001447
Mean motion
15.27576747 rev/d
Perigee alt
482.1 km
Apogee alt
484.1 km
Semi-major
6,861.2 km
B*
1.2982e-5
RAAN
95.2336°
Arg perigee
270.1365°
Mean anomaly
89.9321°
Rev number
17,040

§ Raw data

STARLINK-303361 57703U 23129F   26263.94006949  .00000095  00000+0  12982-4 0  99982 57703  43.0020  95.2336 0001447 270.1365  89.9321 15.27576747170406

JSON: /api/v1/satellites/57703 · /tle

For live sub-satellite position, see the globe view (requires WebGL).

§ Visibility from observer

Set your observer location to see the next 7 days of passes ≥ 10°. The values pass through the URL so the page stays shareable.

No JS? Fill the form by hand. The geolocation button needs JavaScript.